Powrót do katalogu

STARLINK-35748

AktywnyŁącznośćVLEO
NORAD 66206·PAYLOAD·🇺🇸 United States

Wystrzelony Oct 28, 2025 z Vandenberg Space Force Base

Loading…

Następne Przeloty (najbliższe 24 godziny)

TLE

ŚwieżeSource: CelesTrak SupGP

Epoka: Sep 15, 2026, 03:10 UTC

1 66206C 25244A   26258.13243056 -.00025274  00000+0 -74689-3 0  2580
2 66206  53.1588  66.4422 0001196  84.4935 282.9914 15.34395876    13

Śledź STARLINK-35748 w czasie rzeczywistym z AllMySat

Download on the App Store